Location: Gro�sch�nbrunn
(49.5760°N, 11.8868°E)
Time: 22:48:21
(UTC+00:00)

Cosmos 2266 Rocket - Pass Details

Date: 18 September 2020
Orbit: 934 x 1008 km, 82.9° (Epoch: 30 October)

Event Time Altitude Azimuth Distance (km) Brightness Sun altitude
Rises 20:57:58 0° 349° (N) 3,619 7.8 -32.0°
Reaches altitude 10° 21:00:28 10° 348° (NNW) 2,664 7.0 -32.3°
Enters shadow 21:05:33 63° 329° (NNW) 1,042 4.2 -32.8°
